Regional Weather Roundup
Issued by NWS Upton, NY

Current Version | Previous Version | Text Only | Print | Product List | Glossary On
Versions: 1 2 3 4 5 6 7 8 9 10 11 12 13 14 15 16 17 18 19 20 21 22 23 24 25 26 27 28 29 30 31 32 33 34 35 36 37 38 39 40 41 42 43 44 45 46 47 48 49 50
000
ASUS41 KOKX 011704
RWROKX

REGIONAL WEATHER ROUNDUP
NATIONAL WEATHER SERVICE NEW YORK NY
100 PM EDT SAT OCT 01 2016

NOTE: "FAIR" INDICATES FEW OR NO CLOUDS BELOW 12,000 FEET WITH NO
SIGNIFICANT WEATHER AND/OR OBSTRUCTIONS TO VISIBILITY.

NYZ071-072-176-178-NJZ106-104-011800-
NEW YORK CITY METRO AREA

CITY           SKY/WX    TMP DP  RH WIND       PRES   REMARKS
Central Park   CLOUDY    61  56  83 E12       30.23S
LaGuardia APRT CLOUDY    63  57  81 NE16      30.20F
Kennedy INTL   CLOUDY    63  57  81 NE10      30.20F
Newark/Liberty CLOUDY    62  57  83 NE13      30.20S
Bronx Bot Gard   N/A     61  55  82 CALM      30.22F
Wall St Helipt CLOUDY    63  61  94 NE14G23   30.20F
Teterboro      CLOUDY    63  55  77 E8        30.20F
$$

NYZ177-179-078>081-011800-
LONG ISLAND NEW YORK

CITY           SKY/WX    TMP DP  RH WIND       PRES   REMARKS
Farmingdale    CLOUDY    61  57  87 NE10      30.19F
MacArthur/ISP  CLOUDY    61  60  97 N10       30.18F FOG
Shirley        CLOUDY    62  60  93 VRB5      30.18F
Riverhead      NOT AVBL
Westhampton    CLOUDY    63  58  83 NE13G23   30.19F
Southampton      N/A    N/A N/A N/A NE9       30.14F
Bridgehampton    N/A     63  59  88 S3        30.03F
East Hampton   CLOUDY    62  58  87 NE13G21   30.17F
Montauk          N/A     63  60  90 NE13G22   30.18F
$$

NYZ052-065-067-011800-
HUDSON VALLEY

CITY           SKY/WX    TMP DP  RH WIND       PRES   REMARKS
White Plains   DRIZZLE   60  56  86 NE9       30.20F FOG
Newburgh       CLOUDY    57  55  94 NE9       30.24F FOG
Montgomery     CLOUDY    57  55  93 NE10      30.23F FOG
Poughkeepsie   CLOUDY    56  53  90 N7        30.22F
Albany         CLOUDY    57  50  77 CALM      30.27F
$$

NJZ001-105-106-008-010-013-015-019>022-104-011800-
NEW JERSEY

CITY           SKY/WX    TMP DP  RH WIND       PRES   REMARKS
Newark/Liberty CLOUDY    62  57  83 NE13      30.20S
Teterboro      CLOUDY    63  55  77 E8        30.20F
Caldwell       CLOUDY    60  57  89 NE10      30.21F FOG
Morristown     CLOUDY    61  57  88 E7        30.21F FOG
Somerville     CLOUDY    62  56  80 E5        30.18F
Linden         NOT AVBL
Sussex         CLOUDY    56  55  97 VRB7      30.23S FOG
Abdover          N/A     57  55  93 VRB3      30.21F
Trenton        CLOUDY    60  57  89 E9        30.18F
Millville      CLOUDY    66  66 100 E8        30.15S
Atlantic City  CLOUDY    64  63  96 NE13      30.16R FOG
Wrightstown    CLOUDY    62  60  93 NE12      30.14F
Toms River     CLOUDY    62  61  96 NE10      30.18F FOG
Belmar         CLOUDY    62  59  90 NE12      30.19F
$$

PAZ047>061-062-071-011800-
EASTERN PENNSYLVANIA

CITY           SKY/WX    TMP DP  RH WIND       PRES   REMARKS
Philadelphia   CLOUDY    63  59  87 NE8       30.18R
Allentown      CLOUDY    60  55  83 NE12      30.19F
Scranton       CLOUDY    63  56  78 VRB3      30.18F
$$

CTZ002-004>006-009-010-012-RIZ004-006-007-MAZ004-011-015-011800-
SOUTHERN NEW ENGLAND
 IN CT

CITY           SKY/WX    TMP DP  RH WIND       PRES   REMARKS
Bradley INTL   DRIZZLE   54  52  93 N10       30.26F FOG
Hartford       CLOUDY    54  53  97 N13       30.24F FOG
Danbury        CLOUDY    56  54  93 NE9G17    30.24F FOG
Wtrbury/Oxford CLOUDY    55  50  82 NE14G21   30.23F
Bridgeport     CLOUDY    61  53  75 NE14      30.21F
Meriden        CLOUDY    56  52  86 N7        30.24S
New Haven      CLOUDY    57  53  86 N13       30.21F
Chester        CLOUDY    59  57  94 N8        30.21F
Groton         CLOUDY    65  59  81 NE14G24   30.17F
Wilimantic     CLOUDY    60  56  86 NE12      30.23F

 IN RI

CITY           SKY/WX    TMP DP  RH WIND       PRES   REMARKS
Providence     CLOUDY    61  58  90 N13       30.22F FOG
Block Island   CLOUDY    61  60  97 NE16G23   30.18F FOG
Westerly       CLOUDY    64  57  78 N13G21    30.19F
 IN MA

CITY           SKY/WX    TMP DP  RH WIND       PRES   REMARKS
Boston         DRIZZLE   58  58 100 NE16      30.26F FOG
Worcester      FOG       51  50  96 NE13G22   30.26F VSB 1
Westfield      CLOUDY    53  52  96 N14       30.27F FOG
Provincetown   HVY RAIN  59  59 100 NE16      30.22F FOG
Nantucket      CLOUDY    64  63  96 E15       30.13F FOG
$$

ANZ330-335-338-340-345-350-353-355-011800-
COASTAL MARINE OBSERVATIONS


STATION/POSITION TIME  SKY/WX   TEMP    WIND        PRES    VSBY  WAVE
                                AIR SEA DIR/SP/G                  HT/PER
                 (UTC)          (F)     (DEG/KT/KT) (MB)    (MI)  (FT/S)
NY HARB ENTRANCE 1550            62 68   40/ 16/ 19 1021.8          6/ 9
20S FIRE ISLAND  1550            63 67   50/ 21/ 25 1020.9          8/ 8
GREAT SOUTH BAY  1630            61 63  360/  8/ 10   N/A
23 SSW MONTAUK P 1550            62 64   40/ 23/ 27 1021.1          8/ 8
15 E BARNEGAT LI 1630               69                N/A           7/ 9
HUDSON CANYON    1550            67 71              1020.0          6/ 8
KINGS POINT      1624            61 67              1022.5
EXECUTION ROCKS  1645            62      50/ 17/ 21   N/A
CENTRAL LI SOUND NOT AVBL
EASTERN LI SOUND NOT AVBL
ROBBINS REEF     1624            60      50/ 14/ 16 1022.8
$$


>>>>>>>>>>>>>>>>>>>>>>>>>>>> KEY <<<<<<<<<<<<<<<<<<<<<<<<<<<
>                                                          <
>     SKY/WX - Sky Condition/Present Weather               <
>     TMP    - Temperature in Fahrenheit                   <
>     DP     - Dew Point in Fahrenheit                     <
>     RH     - Relative Humidity in Percent                <
>     WIND   - Direction (from) and Speed in MPH           <
>     PRES   - Mean Sea Level Pressure (inches of Hg)      <
>     WCI    - Wind Chill Index                            <
>     VSB    - VISIBILITY IN MILES                         <
>     HX     - HEAT INDEX                                  <
>     TC     - TEMPERATURE IN CELSIUS                      <
>     VRB    - VARIABLE WIND DIRECTION                     <
>                                                          <
>>>>>>>>>>>>>>>>>>>>>>>>>>>> KEY <<<<<<<<<<<<<<<<<<<<<<<<<<<



USA.gov is the U.S. government's official web portal to all federal, state and local government web resources and services.